Terminal Aerodrome Forecast
Issued by NWS Wilmington, NC

Home | Current Version | Previous Version | Text Only | Print | Product List | Glossary On
Versions: 1 2 3 4 5 6 7 8 9 10 11 12 13 14 15 16 17 18 19 20 21
000
FTUS42 KILM 022300
TAFLBT
TAF
KLBT 022320Z 0300/0324 03006KT P6SM SCT025
     FM030400 07008KT P6SM BKN050
     FM031400 08008KT P6SM VCSH OVC025
     FM031800 10008KT 5SM -RA BR BKN016=

USA.gov is the U.S. government's official web portal to all federal, state and local government web resources and services.